Jackpot

Texas Poker Multi Jackpot System

Kini Telah hadir Jackpot SUPER ROYAL FLUSH

Kini Telah hadir Jackpot 2000 (khusus table VIP keatas).

Ikutilah global jackpot yang tersedia di system kami, dengan system jackpot terbaru dan pertama di indonesia, anda dapat membeli jackpot dengan harga 100 rupiah saja dan menangkan hadiahnya hingga puluhan juta rupiah.

Jackpot bukanlah suatu keharusan untuk dibeli, namun kami memberikan suatu fitur tambahan untuk member tercinta dari www.lagapoker.com.

Terdapat tiga pilihan harga jackpot yang bisa anda beli yaitu :100,500,1000 dan 2000(khusus table VIP Keatas) rupiah.

Hadiah dari Multi jackpot system www.lagapoker.com

  1. full house x 10 harga jackpot yang anda beli.
      (contoh:anda membeli 1000 maka:1000 X10 = 10.000)
  2. four of kind x 250 harga jackpot yang anda beli
      (contoh:anda membeli 1000 maka:1000 X250 = 250.000)
  3. Straight flush x 1200
      (contoh:anda membeli 1000 maka:1000 X1200 = 1.200.000)
  4. Royal flush x 10000 harga jackpot yang anda beli
      (contoh:anda membeli 1000 maka:1000 X10000 = 10.000.000)
  5. SUPER ROYAL FLUSH x 30000 harga jackpot yang anda beli
      (contoh:anda membeli 1000 maka:1000 X30000 = 30.000.000)

Kondisi kartu

  1. full house adalah kondisi kartu dimana kartu anda dan kartu tengah dengan total 7 kartu bisa mendapatkan nilai 5 kartu dengan kombinasi 1 tris(three of kind) dan 1 pair, contoh 3 kartu 10 dan 2 kartu 5
  2. Four of kind adalah kondisi kartu dimana kartu anda dan kartu tengah dengan total 7 kartu bisa mendapatkan nilai 5 kartu dengan kombinasi 4 kartu yang sama jumlah dan 1 kartu apapun juga contoh anda mendapatkan 4 buah kartu angka 3 dan 1 kartu apapun.
  3. Staright flush adalah kondisi kartu dimana kartu anda dan kartu tengah dengan total 7 kartu bisa mendapatkan nilai 5 kartu dengan kombinasi seri / staright dengan kembang yang sama contoh : urutan kartu dari angka 5, 6, 7, 8 , 9 10 dengan kembang yg sama misalnya as hati
  4. Royal flush adalah kondisi kartu dimana kartu anda dan kartu tengah dengan total 7 kartu bisa mendapatkan nilai 5 kartu dengan kombinasi seri / staright dengan kembang yang sama tetapi kartu tersebut haruslah dimulai dari 10. contoh 10, Queen, Jack, King dan aces dengan kembang yang sama
  5. Super Royal flush adalah kondisi kartu dimana Kedua kartu anda digabung dengan 3 kartu pertama meja haruslah royal flush. contoh kartu anda 10,Queen kembang sama dan 3 kartu pertama meja adalah Jack, King dan aces dengan kembang yang sama

Demikian adalah penjelasan dari Multi Jackpot www.lagapoker.com terima kasih dan selamat bermain salam hoki dari kami

Texas Poker Jackpot Winner

TOP SUPER ROYAL FLUSH
No.TanggalNamaPriceWin
121/06 08:23TLJ18Super Royal flush6,000,000
221/06 04:23PASAUSuper Royal flush60,000,000
321/06 03:44POKER393OKSuper Royal flush3,000,000
421/06 02:17SEMOGAHQ11Super Royal flush6,000,000
520/06 20:53SIGIT822Super Royal flush30,000,000
TOP ROYAL FLUSH
No.TanggalNamaPriceWin
121/06 09:09KANGKUNG18Royal flush10,000,000
221/06 08:50MENE0Royal flush10,000,000
321/06 08:30ASKOTRoyal flush20,000,000
421/06 08:28ALL05Royal flush10,000,000
521/06 08:17P0K31280Royal flush2,000,000
TOP STRAIGHT FLUSH
No.TanggalNamaPriceWin
121/06 09:14XXBAS33XXStraight Flush240,000
221/06 09:13CANCOUStraight Flush240,000
321/06 09:13KULUP_OOStraight Flush120,000
421/06 09:12LANCIP07Straight Flush600,000
521/06 09:12I4NNStraight Flush240,000
LATEST JACKPOT
No.TanggalNamaPriceWin
121/06 09:14FUTRA888Full House2,000
221/06 09:14ASSSBLEHFull House2,000
321/06 09:14VIKR4M19Full House5,000
421/06 09:14XXBAS33XXStraight Flush240,000
521/06 09:14DUNHILGIRLFull House2,000
621/06 09:14NYENDEW420Full House5,000
721/06 09:14IPINOCEFull House1,000
821/06 09:14B7F56F45Full House2,000
921/06 09:14SRNBACHBMXFull House5,000
1021/06 09:14A6RPYWFYOTFull House5,000
1121/06 09:14WARDES1512Full House5,000
1221/06 09:14BANGANG101Full House500
1321/06 09:14UNJATANUFull House10,000
1421/06 09:14ROBEBYEFull House5,000
1521/06 09:14ROYALHRFour Of A Kind25,000
1621/06 09:13CANCOUStraight Flush240,000
1721/06 09:13KELAPO1960Full House2,000
1821/06 09:13CA5388Full House10,000
1921/06 09:13HAPPYMAN99Four Of A Kind125,000
2021/06 09:13CAIMEOGIFull House20,000
2121/06 09:13MAMPET12Four Of A Kind25,000
2221/06 09:13MANISSEEFull House10,000
2321/06 09:13W212SBLFull House10,000
2421/06 09:13DICKYBLANKFull House2,000
2521/06 09:13RODEO68Full House1,000
2621/06 09:13TERMAS98Full House10,000
2721/06 09:13WANGJI8899Full House2,000
2821/06 09:13KULUP_OOStraight Flush120,000
2921/06 09:13EFB6EF38Full House1,000
3021/06 09:13WAK_GOPARFull House10,000
3121/06 09:13KUNTRINKFull House10,000
3221/06 09:13QUJING81Full House2,000
3321/06 09:13AQUARIZZFull House2,000
3421/06 09:13MADRIIIDFull House1,000
3521/06 09:13CB77ZZZZZFull House2,000
3621/06 09:13BJ0P0LFull House2,000
3721/06 09:13JCSURBAKTIFull House1,000
3821/06 09:13QS9999Full House5,000
3921/06 09:13KADAL1994Full House2,000
4021/06 09:13NURWAHITFull House2,000
4121/06 09:13BEATRYXFull House2,000
4221/06 09:13GMLDIAFull House5,000
4321/06 09:13ADETUKEN19Full House1,000
4421/06 09:13KKA4545Full House1,000
4521/06 09:12TEMPIK01Full House2,000
4621/06 09:12JOSFAHMIFull House1,000
4721/06 09:12JIM789Full House20,000
4821/06 09:12LANCIP07Straight Flush600,000
4921/06 09:12DEMANK44Full House2,000
5021/06 09:12S6H2XGRK36Full House2,000

Domino Multi Jackpot System

Ikutilah global jackpot yang tersedia di system kami, dengan system jackpot terbaru dan pertama di indonesia, anda dapat membeli jackpot dengan harga 100 rupiah saja dan menangkan hadiahnya hingga puluhan juta rupiah.

Jackpot bukanlah suatu keharusan untuk dibeli, namun kami memberikan suatu fitur tambahan untuk member tercinta dari www.lagapoker.com.

Terdapat tiga pilihan harga jackpot yang bisa anda beli yaitu :100,500 dan 1000 rupiah.

Hadiah dari Multi jackpot system www.lagapoker.com

  1. Murni Kecil x 50 harga jackpot yang anda beli.
      (contoh:anda membeli 1000 maka:1000 X 50 = 50.000)
  2. Murni Besar x 50 harga jackpot yang anda beli
      (contoh:anda membeli 1000 maka:1000 X 50 = 50.000)
  3. BALAK x 100 harga jackpot yang anda beli
      (contoh:anda membeli 1000 maka:1000 X 100 = 100.000)
  4. ENAM DEWA x 6666 harga jackpot yang anda beli
      (contoh:anda membeli 1000 maka:1000 X 6666 = 6.666.000)

Demikian adalah penjelasan dari Multi Jackpot www.lagapoker.com terima kasih dan selamat bermain salam hoki dari kami

Domino Jackpot Winner

TOP ENAM DEWA
No.TanggalNamaPriceWin
121/06 08:03A8981B9Emurni enam3,333,000
221/06 03:56LUKI378murni enam3,333,000
321/06 03:37T4D0015777murni enam666,600
421/06 03:14JANJI303murni enam3,333,000
521/06 02:44SHAKImurni enam6,666,000
TOP BALAK
No.TanggalNamaPriceWin
121/06 09:10PUKO1000balak50,000
221/06 09:02AS3918balak10,000
321/06 09:00AT4DKASIH99balak50,000
421/06 08:56TRISTEGUH8balak100,000
521/06 08:55DAURI77balak100,000
LATEST JACKPOT
No.TanggalNamaPriceWin
121/06 09:13MARYATI79murni kecil5,000
221/06 09:13RADIIT007lucky992,500
321/06 09:12ASHI13murni besar50,000
421/06 09:12AGUSAJEW22murni besar5,000
521/06 09:11KRIWOELmurni besar50,000
621/06 09:11GAS4KBOOS9murni besar5,000
721/06 09:10PUKO1000balak50,000
821/06 09:10M4NGSTERmurni kecil5,000
921/06 09:10MASJID1980murni kecil5,000
1021/06 09:10W7M0OD6QJNmurni kecil50,000
1121/06 09:09ALANS12lucky992,500
1221/06 09:07CUTZZZmurni kecil5,000
1321/06 09:02AS3918balak10,000
1421/06 09:02JEKRO45murni besar50,000
1521/06 09:02YEAPATENlucky992,500
1621/06 09:01DITAAYUUmurni kecil50,000
1721/06 09:01ANDHY192murni besar5,000
1821/06 09:00AT4DKASIH99balak50,000
1921/06 09:00APIK111murni besar25,000
2021/06 08:58S3GAW0Nmurni kecil5,000
2121/06 08:57LAWAZ01murni kecil25,000
2221/06 08:57RASY09murni besar50,000
2321/06 08:57BAOT99TROSmurni kecil5,000
2421/06 08:56VEGA2016murni kecil50,000
2521/06 08:56TRISTEGUH8balak100,000
2621/06 08:55DAURI77balak100,000
2721/06 08:54EMIELSYAMmurni kecil50,000
2821/06 08:53BERAEKlucky9925,000
2921/06 08:49KENCANG365murni besar25,000
3021/06 08:47PUKO1000murni kecil25,000
3121/06 08:46IMOT182murni kecil5,000
3221/06 08:46SOFYAN05murni kecil50,000
3321/06 08:46WAHISRImurni kecil50,000
3421/06 08:46Z9999WCmurni kecil50,000
3521/06 08:45SNOW_ICEmurni kecil5,000
3621/06 08:45ASGEBOY88murni besar5,000
3721/06 08:45RAJABAKOlucky99200,000
3821/06 08:44UU50murni kecil25,000
3921/06 08:44BAYOBAYOmurni besar25,000
4021/06 08:43FIOO7XRAKPbalak100,000
4121/06 08:43MUTIWDUITmurni besar25,000
4221/06 08:42RATTIH99murni kecil25,000
4321/06 08:42B18YU82975murni besar50,000
4421/06 08:42HK7LSR109lucky992,500
4521/06 08:41PAJADI_JPlucky992,500
4621/06 08:41WAHISRImurni besar25,000
4721/06 08:39K24T74Smurni besar25,000
4821/06 08:38JCIRCLEPlucky992,500
4921/06 08:35BHEN285lucky9925,000
5021/06 08:31SUT012lucky9910,000

Ceme Multi Jackpot System

Jackpot dilihat dari gabungan kartu pemain dengan kartu bandar. Bandar harus membeli jackpot sebanyak jumlah player yang sedang duduk. Sebagai contoh bila terdapat 3 pemain duduk bermain, dan bandar memutuskan untuk membeli jackpot Rp 1.000, maka pada periode tersebut bandar akan membeli jackpot sebanyak 3xRp1.000 = Rp3.000.

Jackpot bukanlah suatu keharusan untuk dibeli, namun kami memberikan suatu fitur tambahan untuk member tercinta dari www.lagapoker.com.

Terdapat tiga pilihan harga jackpot yang bisa anda beli yaitu :100,500 dan 1000 rupiah.

Hadiah dari Multi jackpot system www.lagapoker.com

  1. Murni Kecil x 50 harga jackpot yang anda beli.
      (contoh:anda membeli 1000 maka:1000 X 50 = 50.000)
  2. Murni Besar x 50 harga jackpot yang anda beli
      (contoh:anda membeli 1000 maka:1000 X 50 = 50.000)
  3. BALAK x 200 harga jackpot yang anda beli
      (contoh:anda membeli 1000 maka:1000 X 200 = 200.000)
  4. ENAM DEWA x 6666 harga jackpot yang anda beli
      (contoh:anda membeli 1000 maka:1000 X 6666 = 6.666.000)

Demikian adalah penjelasan dari Multi Jackpot www.lagapoker.com terima kasih dan selamat bermain salam hoki dari kami

Ceme Jackpot Winner

TOP ENAM DEWA
No.TanggalNamaPriceWin
121/06 09:09CHIVAS35murni enam6,666,000
221/06 09:09MARBUNTRIOmurni enam6,666,000
321/06 08:53SEEDAMZmurni enam6,666,000
421/06 07:43RAKER83murni enam6,666,000
521/06 07:26YANDOL12murni enam3,333,000
TOP BALAK
No.TanggalNamaPriceWin
121/06 09:13CHIPEKObalak200,000
221/06 09:13A22E239Fbalak200,000
321/06 09:12GON7885balak20,000
421/06 09:11LAPANG2balak100,000
521/06 09:09D4C6574Abalak200,000
LATEST JACKPOT
No.TanggalNamaPriceWin
121/06 09:14ARAP0101murni besar50,000
221/06 09:14SEQUIS22murni kecil50,000
321/06 09:14INES_71murni kecil5,000
421/06 09:14IKOO18murni besar25,000
521/06 09:14RASO22murni besar5,000
621/06 09:14REZA219murni besar25,000
721/06 09:14SHENKOmurni besar5,000
821/06 09:14LAKINO2608murni besar50,000
921/06 09:14BADADASSmurni kecil50,000
1021/06 09:13CHIPEKObalak200,000
1121/06 09:13A22E239Fbalak200,000
1221/06 09:13PO77IQBALmurni kecil50,000
1321/06 09:13YUS0300murni kecil50,000
1421/06 09:13DONEEH99murni kecil50,000
1521/06 09:13TEGA09murni kecil50,000
1621/06 09:12DWBTMOZA94murni kecil25,000
1721/06 09:12GON7885balak20,000
1821/06 09:12KU827289murni kecil50,000
1921/06 09:12GNG27murni besar50,000
2021/06 09:12DEGAIN21murni besar25,000
2121/06 09:12GANASS91murni kecil25,000
2221/06 09:12JOKER1333murni besar50,000
2321/06 09:12MARDON99murni besar5,000
2421/06 09:11LAPANG2balak100,000
2521/06 09:11QIDOT88murni kecil50,000
2621/06 09:11ANDIPALImurni besar50,000
2721/06 09:11NELZ01murni besar5,000
2821/06 09:11RICC37murni besar50,000
2921/06 09:11YUYN2E3CAImurni besar25,000
3021/06 09:11MEKKARmurni besar5,000
3121/06 09:11J4LU018murni besar50,000
3221/06 09:10JAMLUTJAMLmurni kecil50,000
3321/06 09:10GOYLENGKOmurni kecil50,000
3421/06 09:10DYNANTAMAmurni kecil5,000
3521/06 09:10DYNANTAMAmurni kecil5,000
3621/06 09:10TORO110murni kecil25,000
3721/06 09:09HAMI1212murni kecil50,000
3821/06 09:09CHIVAS35murni enam6,666,000
3921/06 09:09MARBUNTRIOmurni enam6,666,000
4021/06 09:09D4C6574Abalak200,000
4121/06 09:09TEGA09balak200,000
4221/06 09:09CHIPEKOmurni besar50,000
4321/06 09:09BLACKK39murni besar50,000
4421/06 09:09XNXBSHKKKmurni kecil25,000
4521/06 09:09SAYUR0204balak20,000
4621/06 09:08TEGA09murni kecil50,000
4721/06 09:08FATKHUR86murni kecil50,000
4821/06 09:08PLECI899murni kecil50,000
4921/06 09:08IRAWAN90murni kecil25,000
5021/06 09:08ROJALI85balak200,000